Orbital Elements at Epoch 2459200.5 (2020-Dec-17.0) TDB
Reference: JPL 25 (heliocentric ecliptic J2000)
Element | Value | Uncertainty (1-sigma) | Units |
e | .1815369796664419 | 6.0958e-08 | |
a | 2.311390546960219 | 6.1067e-09 | au |
q | 1.891787688235496 | 1.4218e-07 | au |
i | 5.862741638921664 | 5.1216e-06 | deg |
node | 48.51704481561013 | 3.8443e-05 | deg |
peri | 295.8435444396669 | 4.0226e-05 | deg |
M | 40.26433243358712 | 1.1292e-05 | deg |
tp | 2459056.942320943679 (2020-Jul-26.44232094) | 4.0358e-05 | TDB |
period | 1283.537099379931 3.51 | 5.0867e-06 1.393e-08 | d yr |
n | .2804749470614553 | 1.1115e-09 | deg/d |
Q | 2.730993405684942 | 7.2153e-09 | au |
|
| | Orbit Determination Parameters
Additional Information
|